GW2670 Weather Reports


time (UTC)temp
C
wind
direction
speed
KPH
gust
KPH
rain 1hr
cm
rain 24hr
cm
rain mn
cm
humidity
%
barometer
mb
20260504215013 10 0 0.0 3.2 0.25 0.89 0.89 92 1011.7
20260504214529 11 0 0.0 3.2 0.23 0.86 0.86 92 1011.8
20260504214012 11 217 0.0 3.2 0.23 0.86 0.86 92 1011.9
20260504213514 11 140 1.6 3.2 0.18 0.84 0.84 92 1012.0
20260504213032 11 109 0.0 3.2 0.18 0.79 0.79 91 1012.1
20260504212512 11 0 0.0 8.0 0.13 0.74 0.74 91 1012.1
20260504212011 11 188 3.2 8.0 0.08 0.66 0.66 91 1012.2
20260504211528 11 233 0.0 3.2 0.08 0.66 0.66 91 1012.1
20260504211010 11 286 0.0 8.0 0.05 0.64 0.64 91 1011.8
20260504210510 11 0 1.6 8.0 0.03 0.64 0.64 91 1011.8
20260504210028 11 224 1.6 8.0 0.03 0.64 0.64 91 1011.6
20260504205509 11 0 1.6 8.0 0.03 0.64 0.64 91 1011.4
20260504205010 11 242 1.6 8.0 0.03 0.64 0.64 91 1011.2
20260504204527 11 177 1.6 8.0 0.05 0.64 0.64 91 1011.3
20260504204033 11 221 1.6 8.0 0.05 0.64 0.64 91 1011.2
20260504203518 11 253 1.6 8.0 0.08 0.64 0.64 91 1011.3
20260504203030 11 96 0.0 12.9 0.05 0.61 0.61 91 1011.2
20260504202520 11 219 1.6 12.9 0.05 0.58 0.58 91 1011.2
20260504202017 11 287 1.6 11.3 0.08 0.58 0.58 91 1011.0
20260504201530 11 246 4.8 11.3 0.10 0.58 0.58 91 1011.0
20260504201014 11 227 1.6 6.4 0.10 0.58 0.58 92 1011.0
20260504200514 11 225 1.6 6.4 0.15 0.58 0.58 92 1010.8
20260504200030 11 238 1.6 8.0 0.20 0.58 0.58 92 1010.7
20260504195513 11 0 0.0 8.0 0.20 0.58 0.58 92 1010.7
20260504195014 11 255 1.6 6.4 0.23 0.58 0.58 92 1010.7
20260504194530 11 148 0.0 4.8 0.20 0.56 0.56 92 1010.7
20260504194012 11 153 1.6 4.8 0.20 0.56 0.56 91 1010.7
20260504193515 11 0 0.0 4.8 0.18 0.56 0.56 91 1010.6
20260504193030 11 238 1.6 3.2 0.18 0.56 0.56 91 1010.5
20260504192515 11 0 0.0 1.6 0.15 0.51 0.51 90 1010.6
20260504192015 11 0 0.0 1.6 0.13 0.48 0.48 90 1010.6
20260504191534 11 250 0.0 1.6 0.10 0.46 0.46 89 1010.4
20260504191012 11 0 0.0 1.6 0.08 0.46 0.46 89 1010.3
20260504190520 11 0 0.0 6.4 0.05 0.41 0.41 88 1010.3
20260504190032 11 246 0.0 9.7 0.00 0.36 0.36 87 1010.4
20260504185513 12 164 3.2 9.7 0.00 0.36 0.36 86 1010.3
20260504185014 12 226 3.2 8.0 0.00 0.36 0.36 86 1010.4
20260504184528 12 227 3.2 14.5 0.00 0.36 0.36 85 1010.2
20260504184014 12 203 4.8 14.5 0.00 0.36 0.36 84 1010.3
20260504183513 12 115 4.8 12.9 0.00 0.36 0.36 84 1010.3
20260504183030 12 236 3.2 17.7 0.00 0.36 0.36 84 1010.2
20260504182514 12 229 3.2 17.7 0.00 0.36 0.36 84 1010.1
20260504182014 12 183 8.0 17.7 0.00 0.36 0.36 84 1010.1
20260504181533 12 148 6.4 16.1 0.00 0.36 0.36 85 1010.2
20260504181014 12 166 4.8 16.1 0.00 0.36 0.36 86 1010.3
20260504180517 12 214 4.8 14.5 0.00 0.36 0.36 86 1010.4
20260504180030 12 28 4.8 14.5 0.00 0.36 0.36 87 1010.5
20260504175521 12 229 4.8 12.9 0.00 0.36 0.36 87 1010.5
20260504175014 12 205 3.2 12.9 0.00 0.36 0.36 87 1010.5
20260504174529 12 221 0.0 6.4 0.00 0.36 0.36 88 1010.6
20260504174015 12 18 1.6 8.0 0.00 0.36 0.36 87 1010.7
20260504173517 12 258 1.6 11.3 0.00 0.36 0.36 87 1010.6
20260504173031 12 209 6.4 11.3 0.00 0.36 0.36 87 1010.7
20260504172513 12 175 1.6 4.8 0.00 0.36 0.36 87 1010.8
20260504172014 12 239 0.0 8.0 0.00 0.36 0.36 87 1010.8
20260504171528 12 55 1.6 11.3 0.00 0.36 0.36 86 1010.8
20260504171015 12 216 3.2 12.9 0.00 0.36 0.36 85 1010.8
20260504170514 13 29 3.2 12.9 0.00 0.36 0.36 83 1010.7
20260504151014 15 234 6.4 19.3 0.00 0.33 0.33 76 1011.2
20260504150515 15 195 6.4 19.3 0.00 0.33 0.33 76 1011.2
20260504141013 16 107 4.8 24.1 0.00 0.33 0.33 73 1011.5
20260504140514 17 189 8.0 24.1 0.00 0.33 0.33 71 1011.5
20260504130513 15 0 0.0 11.3 0.00 0.33 0.33 80 1011.7
20260504110514 14 0 0.0 1.6 0.00 0.33 0.33 80 1013.3
20260504100513 13 0 0.0 1.6 0.00 0.33 0.33 85 1013.6
20260504081527 12 0 0.0 1.6 0.00 0.33 0.33 87 1013.6
20260504081011 11 0 0.0 9.7 0.00 0.33 0.33 88 1013.5
20260504080511 11 95 0.0 11.3 0.00 0.33 0.33 87 1013.5
20260504050515 11 279 3.2 16.1 0.03 0.05 0.05 88 1012.8
20260504045515 11 184 4.8 12.9 0.05 0.05 0.05 90 1012.9
20260504045014 11 245 3.2 9.7 0.05 0.05 0.05 90 1012.8
20260504044532 11 88 1.6 6.4 0.05 0.05 0.05 90 1012.8
20260504044015 11 205 0.0 4.8 0.05 0.05 0.05 90 1012.9
20260504043515 11 248 1.6 6.4 0.05 0.05 0.05 90 1012.9
20260504043030 11 237 1.6 9.7 0.05 0.05 0.05 89 1012.9
20260504042514 11 258 3.2 14.5 0.05 0.05 0.05 89 1012.9
20260504042014 11 274 1.6 14.5 0.05 0.05 0.05 89 1012.9
20260504041531 11 98 3.2 14.5 0.03 0.03 0.03 88 1012.9
20260504041014 11 155 1.6 19.3 0.03 0.03 0.03 89 1012.9
20260504040515 11 222 3.2 19.3 0.00 0.00 0.00 89 1012.7
20260504040030 11 195 3.2 11.3 0.00 0.00 0.00 89 1012.8
20260504035513 11 287 4.8 11.3 0.00 0.00 0.00 89 1012.9
20260504035015 11 339 3.2 6.4 0.00 0.00 0.00 89 1012.9
20260504034531 11 334 1.6 11.3 0.00 0.00 0.00 89 1013.0
20260504034015 11 281 1.6 11.3 0.00 0.00 0.00 88 1013.1
20260504033516 11 229 1.6 8.0 0.00 0.00 0.00 88 1013.2
20260504033029 11 279 1.6 14.5 0.00 0.00 0.00 87 1013.2
20260504032516 11 158 1.6 14.5 0.00 0.00 0.00 87 1013.2
20260504032015 11 297 3.2 14.5 0.00 0.00 0.00 87 1013.2
20260504031528 11 39 3.2 12.9 0.00 0.00 0.00 87 1013.1
20260504031015 11 98 4.8 12.9 0.00 0.00 0.00 87 1013.1
20260504030514 11 221 3.2 12.9 0.00 0.00 0.00 87 1013.1
20260504030030 11 182 3.2 12.9 0.00 0.00 0.00 87 1013.0
20260504025515 11 207 3.2 12.9 0.00 0.00 0.00 87 1013.1
20260504025015 11 135 3.2 22.5 0.00 0.00 0.00 87 1013.2
20260504024530 11 199 6.4 22.5 0.00 0.00 0.00 87 1013.1
20260504024014 11 179 4.8 14.5 0.00 0.00 0.00 88 1013.1
20260504023514 11 101 3.2 9.7 0.00 0.00 0.00 87 1013.1
20260504023032 11 117 1.6 14.5 0.00 0.00 0.00 87 1013.2
20260504022514 11 87 4.8 16.1 0.00 0.00 0.00 87 1013.3
20260504022015 11 127 4.8 17.7 0.00 0.00 0.00 87 1013.3
20260504021531 11 86 3.2 17.7 0.00 0.00 0.00 87 1013.2
20260504021014 11 237 1.6 12.9 0.00 0.00 0.00 87 1013.3
20260504020514 11 98 3.2 16.1 0.00 0.00 0.00 87 1013.4
20260504020029 11 225 4.8 16.1 0.00 0.00 0.00 86 1013.4
20260504015514 11 142 6.4 24.1 0.00 0.00 0.00 86 1013.5
20260504015014 11 88 8.0 24.1 0.00 0.00 0.00 86 1013.4
20260504014528 11 130 4.8 14.5 0.00 0.00 0.00 86 1013.4
20260504014013 11 117 6.4 29.0 0.00 0.00 0.00 85 1013.4
20260504013514 11 205 3.2 29.0 0.00 0.00 0.00 84 1013.3
20260504013035 11 22 3.2 11.3 0.00 0.00 0.00 84 1013.5
20260504012515 11 123 3.2 11.3 0.00 0.00 0.00 85 1013.5
20260504012014 11 68 1.6 16.1 0.00 0.00 0.00 85 1013.5
20260504011533 11 210 3.2 16.1 0.00 0.00 0.00 84 1013.6
20260504011014 11 141 4.8 16.1 0.00 0.00 0.00 84 1013.4
20260504010514 11 149 3.2 16.1 0.00 0.00 0.00 83 1013.5
20260504010031 11 90 6.4 19.3 0.00 0.00 0.00 82 1013.4
20260504005514 11 57 4.8 19.3 0.00 0.00 0.00 81 1013.4
20260504005014 11 227 6.4 22.5 0.00 0.00 0.00 81 1013.5
20260504004530 11 30 8.0 22.5 0.00 0.00 0.00 80 1013.5
20260504004014 11 78 8.0 20.9 0.00 0.00 0.00 80 1013.7
20260504003514 11 257 6.4 20.9 0.00 0.00 0.00 79 1013.6
20260504003038 11 100 3.2 14.5 0.00 0.00 0.00 80 1013.8
20260504002514 11 116 6.4 14.5 0.00 0.00 0.00 80 1013.9
20260504002014 11 94 4.8 17.7 0.00 0.00 0.00 81 1014.0
20260504001535 11 123 6.4 17.7 0.00 0.00 0.00 81 1014.1
20260504001014 11 125 6.4 16.1 0.00 0.00 0.00 80 1014.2
20260504000514 11 142 4.8 14.5 0.00 0.00 0.00 79 1014.1
20260504000051 11 165 4.8 17.7 0.00 0.00 0.00 79 1014.1
20260503235514 12 192 4.8 19.3 0.00 0.00 0.00 78 1014.1
20260503235014 12 164 9.7 19.3 0.00 0.00 0.00 77 1014.2
20260503234533 12 163 4.8 16.1 0.00 0.00 0.00 76 1014.3
20260503234014 12 182 4.8 25.7 0.00 0.00 0.00 76 1014.3
20260503233513 12 123 8.0 25.7 0.00 0.00 0.00 77 1014.3
20260503233031 12 112 3.2 17.7 0.00 0.00 0.00 78 1014.3
20260503232514 12 92 6.4 24.1 0.00 0.00 0.00 78 1014.4
20260503232014 12 30 8.0 24.1 0.00 0.00 0.00 78 1014.4
20260503231529 12 177 8.0 22.5 0.00 0.00 0.00 79 1014.5
20260503231015 12 232 3.2 19.3 0.00 0.00 0.00 79 1014.5
20260503230514 12 275 4.8 19.3 0.00 0.00 0.00 79 1014.6
20260503230028 12 178 6.4 17.7 0.00 0.00 0.00 79 1014.7
20260503225513 12 159 6.4 17.7 0.00 0.00 0.00 78 1014.7
20260503225013 12 74 3.2 19.3 0.00 0.00 0.00 78 1014.7
20260503224530 12 142 6.4 19.3 0.00 0.00 0.00 77 1014.7
20260503224014 12 351 3.2 22.5 0.00 0.00 0.00 78 1014.7
20260503223511 12 88 1.6 22.5 0.00 0.00 0.00 78 1014.6
20260503223037 12 182 6.4 17.7 0.00 0.00 0.00 78 1014.6
20260503222514 12 131 8.0 17.7 0.00 0.00 0.00 78 1014.6
20260503222012 12 188 8.0 17.7 0.00 0.00 0.00 78 1014.7
20260503221535 12 227 4.8 16.1 0.00 0.00 0.00 79 1014.7
20260503221014 12 162 6.4 14.5 0.00 0.00 0.00 79 1014.7
20260503220514 12 94 8.0 16.1 0.00 0.00 0.00 79 1014.7
20260503220032 12 142 4.8 16.1 0.00 0.00 0.00 80 1014.7
20260503215513 12 168 6.4 22.5 0.00 0.00 0.00 80 1014.9